Location: Azul
(36.7830°S, 59.8500°W)
Time: 09:40:49
(UTC-03:00)

Hubble Space Telescope - Visible Passes

Search period start: 17 July 2024 00:00
Search period end: 27 July 2024 00:00
Orbit: 510 x 513 km, 28.5° (Epoch: 17 July)

Date Brightness Start Highest point End Pass type
(mag) Time Alt. Az. Time Alt. Az. Time Alt. Az.
17 Jul 3.2 06:46:24 10° NNW 06:48:58 16° NNE 06:51:32 10° NE visible
18 Jul 3.0 06:27:11 12° NNW 06:29:30 18° NNE 06:32:14 10° ENE visible
19 Jul 2.8 06:09:05 17° N 06:10:01 19° NNE 06:12:53 10° ENE visible
20 Jul 2.8 05:50:54 20° NNE 05:50:54 20° NNE 05:53:29 10° ENE visible
20 Jul 2.5 07:27:16 10° WNW 07:30:35 24° N 07:33:53 10° NE visible
21 Jul 3.3 05:32:38 17° NE 05:32:38 17° NE 05:34:05 10° ENE visible
21 Jul 2.5 07:07:48 10° WNW 07:11:05 24° N 07:14:22 10° NE visible
22 Jul 3.8 05:14:18 11° ENE 05:14:18 11° ENE 05:14:38 10° ENE visible
22 Jul 2.5 06:49:05 14° NW 06:51:34 24° N 06:54:48 10° NE visible
23 Jul 2.4 06:30:43 19° NW 06:32:02 23° N 06:35:14 10° NE visible
24 Jul 2.4 06:12:19 22° NNW 06:12:28 22° N 06:15:37 10° NE visible
25 Jul 2.8 05:53:54 19° NNE 05:53:54 19° NNE 05:56:00 10° NE visible
25 Jul 3.3 07:32:18 10° NNW 07:32:50 10° NNW 07:33:21 10° NNW visible
26 Jul 3.4 05:35:29 14° NNE 05:35:29 14° NNE 05:36:20 10° NE visible
